記事タイトル:Comet P/2003 SQ215 (NEAT-LONEOS) 

最新の情報は「更新」や「再読み込み」ボタンを押してリロードしてご覧ください。

書き込み欄へ  ヘルプ
お名前: 佐藤 裕久   
NEATとLONEOSそれぞれ独立発見していた小惑星状の天体 2003 SQ215が欧州南天天文台(ESO)の
3.6-m NTT(New Technology Telescope)+SUSI-2 cameraにより全光度20.3等、p.a. 130°に
1.7″伸びている非対称なコマを観測した。

 
発見位置は次のとおり、

    2003 UT             R.A. (2000) Decl.       Mag.   Observer
     Sept.24.18377   21 42 42.67   - 5 13 24.2   18.9   NEAT
          27.16490   21 41 46.21   - 5 22 30.6   18.7   LONEOS

楕円軌道要素と位置推算表は次のとおり、

Orbital elements:
    P/2003 SQ215 (NEAT-LONEOS)
Epoch 2004 Mar. 16.0 TT = JDT 2453080.5
T 2004 Mar. 24.22929 TT                                 MPC
q   2.3042255            (2000.0)            P               Q
n   0.07635464     Peri.  137.30288     +0.81661704     -0.56940714
a   5.5027413      Node   257.64057     +0.50005857     +0.77965414
e   0.5812586      Incl.    5.54594     +0.28823262     +0.26060492
P  12.91
From 43 observations 2003 Sept. 18-2004 Jan. 19, mean residual 0".65.

Ephemeris:
    P/2003 SQ215 (NEAT-LONEOS)
Date    TT    R. A. (2000) Decl.     Delta      r     Elong.  Phase   m1    m2
2004 01 16    23 20.85   +00 30.4    2.780    2.378    56.2    20.1        19.1
2004 01 26    23 38.30   +02 05.7    2.856    2.358    50.7    18.8        19.1
2004 02 05    23 56.45   +03 47.0    2.927    2.341    45.4    17.4        19.1
2004 02 15    00 15.20   +05 32.8    2.992    2.328    40.2    15.9        19.1
2004 02 25    00 34.51   +07 21.5    3.053    2.317    35.3    14.3        19.1
2004 03 06    00 54.30   +09 11.2    3.109    2.310    30.5    12.6        19.0

(IAUC 8274、MPEC 2004-B35)
[2004年1月24日 8時9分46秒]

この記事への返信をどうぞ。
氏名
E-mail URL



記事一覧に戻る